Location: Rooftop Observatory
(39.0308°N, 87.1711°W)
Time: 23:32:41
(UTC-05:00)

Terra - Visible Passes

Search period start: 25 July 2016 00:00
Search period end: 04 August 2016 00:00
Orbit: 701 x 703 km, 98.2° (Epoch: 25 July)

Date Brightness Start Highest point End Pass type
(mag) Time Alt. Az. Time Alt. Az. Time Alt. Az.
25 Jul 3.9 21:25:43 11° E 21:27:30 13° ENE 21:29:38 10° NE visible
25 Jul 1.9 23:04:36 68° WSW 23:04:39 68° W 23:09:24 10° NNW visible
26 Jul 2.7 22:09:02 31° E 22:09:50 33° ENE 22:14:04 10° N visible
26 Jul 3.6 23:47:55 24° W 23:47:55 24° W 23:51:25 10° NW visible
27 Jul 1.7 22:52:21 88° SSE 22:52:24 90° ESE 22:57:12 10° NNW visible
28 Jul 3.1 21:56:47 24° E 21:57:41 25° ENE 22:01:33 10° NNE visible
28 Jul 3.2 23:35:41 31° W 23:35:41 31° W 23:39:31 10° NNW visible
29 Jul 1.8 22:40:07 67° E 22:40:12 68° ENE 22:44:56 10° N visible
30 Jul 4.4 00:19:00 11° W 00:19:00 11° W 00:19:56 10° WNW visible
30 Jul 3.4 21:44:33 18° E 21:45:35 19° ENE 21:48:56 10° NNE visible
30 Jul 2.7 23:23:26 41° W 23:23:26 41° W 23:27:31 10° NNW visible
31 Jul 2.1 22:27:52 50° E 22:28:01 50° ENE 22:32:37 10° N visible
01 Aug 4.2 00:06:46 15° W 00:06:46 15° W 00:08:52 10° NW visible
01 Aug 3.7 21:32:19 14° E 21:33:29 15° ENE 21:36:07 10° NNE visible
01 Aug 2.3 23:11:12 55° WNW 23:11:12 55° WNW 23:15:25 10° NNW visible
02 Aug 2.5 22:15:38 37° ENE 22:15:51 37° ENE 22:20:14 10° N visible
02 Aug 3.9 23:54:32 20° W 23:54:32 20° W 23:57:16 10° NW visible
03 Aug 4.0 21:20:05 10° ENE 21:21:26 11° ENE 21:22:50 10° NE visible
03 Aug 2.0 22:58:58 69° NW 22:58:58 69° NW 23:03:15 10° NNW visible
